K5SVV Weather Reports


Display with metric or nautical units.
time (UTC)temp
F
wind
direction
speed
MPH
gust
MPH
rain 1hr
in
rain 24hr
in
rain mn
in
humidity
%
barometer
mb
20260901060211 83 169 0.0 0.0 0.00 0.00 0.00 58 1014.9
20260901055706 83 174 0.0 0.0 0.00 0.00 0.00 57 1014.9
20260901055202 83 176 0.0 0.0 0.00 0.00 0.00 56 1014.5
20260901054659 83 174 1.0 2.0 0.00 0.00 0.00 56 1014.8
20260901054155 84 174 0.0 0.0 0.00 0.00 0.00 56 1014.7
20260901053651 84 154 0.0 0.0 0.00 0.00 0.00 55 1014.7
20260901053147 84 210 2.0 2.0 0.00 0.00 0.00 54 1014.7
20260901052642 84 178 1.0 2.0 0.00 0.00 0.00 54 1014.5
20260901052137 84 151 4.0 4.0 0.00 0.00 0.00 54 1014.5
20260901051636 84 175 0.0 0.0 0.00 0.00 0.00 53 1014.4
20260901051136 84 181 0.0 1.0 0.00 0.00 0.00 53 1014.4
20260901050632 84 176 0.0 0.0 0.00 0.00 0.00 53 1014.5
20260901050127 84 168 2.0 3.0 0.00 0.00 0.00 53 1014.2
20260901045626 83 186 0.0 0.0 0.00 0.00 0.00 53 1014.2
20260901045121 83 175 0.0 0.0 0.00 0.00 0.00 53 1014.4
20260901044617 82 189 0.0 0.0 0.00 0.00 0.00 54 1014.6
20260901044113 82 191 0.0 0.0 0.00 0.00 0.00 55 1014.2
20260901043609 82 191 0.0 0.0 0.00 0.00 0.00 55 1014.1
20260901043104 82 191 0.0 0.0 0.00 0.00 0.00 55 1014.1
20260901042603 82 191 0.0 0.0 0.00 0.00 0.00 56 1014.1
20260901042059 82 191 0.0 0.0 0.00 0.00 0.00 56 1014.2
20260901041554 82 191 0.0 0.0 0.00 0.00 0.00 55 1013.9
20260901041048 83 191 0.0 0.0 0.00 0.00 0.00 54 1014.0
20260901040548 83 191 0.0 0.0 0.00 0.00 0.00 53 1014.1
20260901040042 83 191 0.0 0.0 0.00 0.00 0.00 53 1014.2
20260901035540 83 191 0.0 0.0 0.00 0.00 0.00 53 1014.2
20260901035039 84 191 0.0 0.0 0.00 0.00 0.00 52 1014.2
20260901034533 84 191 0.0 0.0 0.00 0.00 0.00 52 1014.2
20260901034028 83 184 0.0 0.0 0.00 0.00 0.00 52 1014.2
20260901033527 83 173 0.0 0.0 0.00 0.00 0.00 53 1014.5
20260901033021 83 191 0.0 0.0 0.00 0.00 0.00 55 1014.0
20260901032516 84 191 0.0 0.0 0.00 0.00 0.00 54 1014.1
20260901032016 84 191 0.0 0.0 0.00 0.00 0.00 53 1014.5
20260901031511 84 190 0.0 0.0 0.00 0.00 0.00 53 1014.1
20260901031006 84 190 0.0 0.0 0.00 0.00 0.00 52 1014.1
20260901030456 84 190 0.0 0.0 0.00 0.00 0.00 51 1013.9
20260901025954 84 191 0.0 0.0 0.00 0.00 0.00 52 1014.1
20260901025449 85 190 0.0 0.0 0.00 0.00 0.00 51 1013.9
20260901024948 85 190 0.0 0.0 0.00 0.00 0.00 50 1013.9
20260901024444 85 190 0.0 0.0 0.00 0.00 0.00 50 1013.9
20260901023942 85 190 0.0 0.0 0.00 0.00 0.00 50 1013.8
20260901023437 85 190 0.0 0.0 0.00 0.00 0.00 50 1014.0
20260901022932 85 191 0.0 0.0 0.00 0.00 0.00 49 1013.7
20260901022428 86 191 0.0 0.0 0.00 0.00 0.00 49 1013.7
20260901021923 86 190 0.0 0.0 0.00 0.00 0.00 48 1013.6
20260901021419 86 190 0.0 0.0 0.00 0.00 0.00 48 1013.5
20260901020914 86 190 0.0 0.0 0.00 0.00 0.00 48 1013.7
20260901020409 86 188 0.0 0.0 0.00 0.00 0.00 47 1013.3
20260901015908 87 190 0.0 0.0 0.00 0.00 0.00 47 1013.2
20260901015405 87 190 0.0 0.0 0.00 0.00 0.00 46 1013.5
20260901014903 87 190 0.0 0.0 0.00 0.00 0.00 46 1013.3
20260901014359 87 186 0.0 0.0 0.00 0.00 0.00 45 1013.3
20260901013855 88 183 0.0 0.0 0.00 0.00 0.00 44 1013.4
20260901013345 89 182 0.0 0.0 0.00 0.00 0.00 43 1013.2
20260901012841 89 183 0.0 0.0 0.00 0.00 0.00 42 1013.3
20260901012335 89 179 0.0 0.0 0.00 0.00 0.00 42 1013.2
20260901011831 90 190 0.0 0.0 0.00 0.00 0.00 41 1013.1
20260901011326 90 172 0.0 0.0 0.00 0.00 0.00 41 1013.2
20260901010825 91 177 0.0 0.0 0.00 0.00 0.00 40 1013.2
20260901010321 91 174 0.0 0.0 0.00 0.00 0.00 39 1013.2
20260901005819 92 166 0.0 0.0 0.00 0.00 0.00 39 1013.0
20260901005315 92 178 0.0 0.0 0.00 0.00 0.00 38 1013.2
20260901004815 93 181 0.0 0.0 0.00 0.00 0.00 38 1013.2
20260901004309 93 166 0.0 0.0 0.00 0.00 0.00 37 1013.2
20260901003808 94 184 0.0 0.0 0.00 0.00 0.00 37 1013.1
20260901003304 94 173 0.0 1.0 0.00 0.00 0.00 38 1013.0
20260901002802 95 157 0.0 0.0 0.00 0.00 0.00 38 1013.0
20260901002257 95 181 0.0 0.0 0.00 0.00 0.00 37 1013.1
20260901001752 95 171 0.0 0.0 0.00 0.00 0.00 37 1012.9
20260901001248 96 166 0.0 0.0 0.00 0.00 0.00 36 1013.1
20260901000743 96 164 0.0 1.0 0.00 0.00 0.00 36 1012.8
20260901000241 96 158 2.0 2.0 0.00 0.00 0.00 36 1013.1
20260831235737 97 169 1.0 1.0 0.00 0.00 0.00 36 1013.0
20260831235233 97 165 1.0 1.0 0.00 0.00 0.00 35 1012.9
20260831234733 97 184 3.0 3.0 0.00 0.00 0.00 35 1013.1
20260831234233 98 126 5.0 7.0 0.00 0.00 0.00 35 1013.1
20260831233728 98 138 3.0 7.0 0.00 0.00 0.00 35 1013.1
20260831233224 98 79 2.0 3.0 0.00 0.00 0.00 35 1012.6
20260831232724 98 163 3.0 4.0 0.00 0.00 0.00 36 1013.0
20260831232220 99 154 1.0 3.0 0.00 0.00 0.00 35 1013.2
20260831231716 98 189 0.0 0.0 0.00 0.00 0.00 35 1013.0
20260831231212 99 151 0.0 0.0 0.00 0.00 0.00 35 1013.0
20260831230712 99 164 1.0 1.0 0.00 0.00 0.00 36 1012.9
20260831230207 99 156 2.0 2.0 0.00 0.00 0.00 36 1012.9
20260831225707 99 114 1.0 2.0 0.00 0.00 0.00 35 1012.9
20260831225202 99 164 0.0 1.0 0.00 0.00 0.00 36 1013.2
20260831224657 99 136 2.0 3.0 0.00 0.00 0.00 36 1013.1
20260831224152 99 162 1.0 2.0 0.00 0.00 0.00 35 1013.3
20260831223648 100 150 1.0 2.0 0.00 0.00 0.00 36 1013.3
20260831223144 99 186 0.0 0.0 0.00 0.00 0.00 36 1013.5
20260831222639 99 125 3.0 4.0 0.00 0.00 0.00 36 1013.4
20260831222135 99 167 5.0 7.0 0.00 0.00 0.00 36 1013.3
20260831221630 99 149 1.0 2.0 0.00 0.00 0.00 36 1013.2
20260831221125 98 173 3.0 4.0 0.00 0.00 0.00 36 1013.2
20260831220621 96 172 1.0 2.0 0.00 0.00 0.00 38 1013.3
20260831220115 97 132 3.0 4.0 0.00 0.00 0.00 38 1013.5
20260831215611 98 163 2.0 3.0 0.00 0.00 0.00 38 1013.2
20260831215107 99 162 2.0 2.0 0.00 0.00 0.00 37 1013.4
20260831214604 100 160 4.0 6.0 0.00 0.00 0.00 35 1013.6
20260831214100 101 152 6.0 8.0 0.00 0.00 0.00 36 1013.5
20260831213556 100 65 2.0 2.0 0.00 0.00 0.00 35 1013.4
20260831213051 99 188 5.0 7.0 0.00 0.00 0.00 37 1013.8
20260831212542 100 187 0.0 0.0 0.00 0.00 0.00 36 1013.7
20260831212037 100 160 2.0 4.0 0.00 0.00 0.00 37 1013.8
20260831211531 98 92 0.0 0.0 0.00 0.00 0.00 38 1013.7
20260831211031 101 157 0.0 1.0 0.00 0.00 0.00 37 1013.8
20260831210526 101 205 3.0 7.0 0.00 0.00 0.00 36 1013.9
20260831210022 101 48 1.0 3.0 0.00 0.00 0.00 35 1013.8
20260831205516 101 195 6.0 8.0 0.00 0.00 0.00 35 1014.0
20260831205012 100 182 2.0 2.0 0.00 0.00 0.00 35 1014.1
20260831204507 100 153 5.0 7.0 0.00 0.00 0.00 36 1014.4
20260831204005 100 168 5.0 7.0 0.00 0.00 0.00 36 1014.2
20260831203505 101 171 6.0 8.0 0.00 0.00 0.00 35 1014.5
20260831203004 100 159 1.0 1.0 0.00 0.00 0.00 35 1014.6
20260831202459 100 103 5.0 6.0 0.00 0.00 0.00 35 1014.7
20260831201958 100 159 0.0 1.0 0.00 0.00 0.00 35 1014.7
20260831201456 100 153 1.0 1.0 0.00 0.00 0.00 36 1014.7
20260831200952 100 91 1.0 1.0 0.00 0.00 0.00 37 1014.7
20260831200447 100 162 5.0 9.0 0.00 0.00 0.00 37 1014.8
20260831195942 100 165 2.0 3.0 0.00 0.00 0.00 35 1014.8
20260831195438 99 54 1.0 2.0 0.00 0.00 0.00 35 1014.8
20260831194933 97 184 7.0 9.0 0.00 0.00 0.00 38 1014.8
20260831194428 98 171 2.0 3.0 0.00 0.00 0.00 40 1014.9
20260831193927 99 165 4.0 6.0 0.00 0.00 0.00 38 1015.1
20260831193423 98 142 4.0 4.0 0.00 0.00 0.00 38 1015.0
20260831192918 98 179 7.0 10.0 0.00 0.00 0.00 39 1015.3
20260831192413 98 145 3.0 3.0 0.00 0.00 0.00 41 1015.6
20260831191908 99 170 1.0 3.0 0.00 0.00 0.00 39 1015.5
20260831191404 99 154 2.0 2.0 0.00 0.00 0.00 40 1015.4
20260831190901 99 189 5.0 7.0 0.00 0.00 0.00 39 1015.5
20260831190400 98 195 9.0 14.0 0.00 0.00 0.00 37 1015.5
20260831185900 98 194 6.0 10.0 0.00 0.00 0.00 40 1015.6
20260831185355 98 178 2.0 2.0 0.00 0.00 0.00 41 1015.4
20260831184855 98 149 5.0 7.0 0.00 0.00 0.00 41 1015.4
20260831184350 98 198 8.0 10.0 0.00 0.00 0.00 39 1015.7
20260831183845 97 190 5.0 6.0 0.00 0.00 0.00 42 1015.5
20260831183345 97 179 9.0 15.0 0.00 0.00 0.00 42 1015.7
20260831182844 97 157 4.0 6.0 0.00 0.00 0.00 42 1015.9
20260831182339 98 168 7.0 11.0 0.00 0.00 0.00 41 1015.8
20260831181834 97 159 0.0 1.0 0.00 0.00 0.00 43 1015.9
20260831181330 96 175 2.0 2.0 0.00 0.00 0.00 45 1015.9
20260831180824 96 117 4.0 6.0 0.00 0.00 0.00 43 1016.0
20260831180319 95 142 5.0 7.0 0.00 0.00 0.00 45 1016.3
20260831175818 96 162 5.0 8.0 0.00 0.00 0.00 44 1016.3
20260831175315 96 182 3.0 3.0 0.00 0.00 0.00 45 1016.3
20260831174810 96 195 3.0 7.0 0.00 0.00 0.00 45 1016.4
20260831174306 97 154 2.0 3.0 0.00 0.00 0.00 43 1016.7
20260831173805 96 160 0.0 0.0 0.00 0.00 0.00 44 1016.6
20260831173259 96 154 3.0 3.0 0.00 0.00 0.00 46 1016.7
20260831172754 96 178 4.0 9.0 0.00 0.00 0.00 45 1017.0
20260831172249 96 182 6.0 8.0 0.00 0.00 0.00 45 1016.6
20260831171744 95 149 1.0 1.0 0.00 0.00 0.00 47 1016.7
20260831171241 95 129 6.0 7.0 0.00 0.00 0.00 47 1017.1
20260831170738 94 133 5.0 6.0 0.00 0.00 0.00 47 1016.9
20260831170234 94 172 7.0 8.0 0.00 0.00 0.00 49 1017.0
20260831165730 94 190 3.0 4.0 0.00 0.00 0.00 48 1017.0
20260831165226 94 189 4.0 4.0 0.00 0.00 0.00 48 1016.9
20260831164721 93 186 1.0 3.0 0.00 0.00 0.00 51 1016.9
20260831164218 92 147 1.0 3.0 0.00 0.00 0.00 53 1017.1
20260831163713 92 191 6.0 7.0 0.00 0.00 0.00 53 1017.2
20260831163208 92 185 4.0 7.0 0.00 0.00 0.00 52 1017.1
20260831162707 91 165 2.0 2.0 0.00 0.00 0.00 52 1017.0
20260831162206 91 168 7.0 9.0 0.00 0.00 0.00 52 1016.9
20260831161701 92 158 4.0 6.0 0.00 0.00 0.00 53 1017.0
20260831161158 91 181 3.0 4.0 0.00 0.00 0.00 53 1017.0
20260831160656 91 184 3.0 4.0 0.00 0.00 0.00 54 1017.1
20260831160152 90 162 4.0 4.0 0.00 0.00 0.00 54 1017.1
20260831155651 91 178 7.0 10.0 0.00 0.00 0.00 55 1017.2
20260831155147 89 171 1.0 1.0 0.00 0.00 0.00 56 1017.2
20260831154643 89 206 4.0 4.0 0.00 0.00 0.00 58 1017.2
20260831154138 89 169 4.0 6.0 0.00 0.00 0.00 59 1017.2
20260831153637 88 147 4.0 6.0 0.00 0.00 0.00 59 1017.1
20260831153134 88 177 6.0 8.0 0.00 0.00 0.00 59 1017.1
20260831152629 88 159 7.0 11.0 0.00 0.00 0.00 59 1017.1
20260831152125 87 185 2.0 6.0 0.00 0.00 0.00 62 1016.8
20260831151624 87 226 3.0 3.0 0.00 0.00 0.00 64 1016.9
20260831151118 86 182 4.0 4.0 0.00 0.00 0.00 65 1016.9
20260831150609 86 190 4.0 7.0 0.00 0.00 0.00 65 1017.0
20260831150104 86 181 7.0 8.0 0.00 0.00 0.00 65 1016.9
20260831145558 86 189 5.0 7.0 0.00 0.00 0.00 67 1017.0
20260831145054 85 217 4.0 4.0 0.00 0.00 0.00 68 1016.8
20260831144550 84 218 6.0 9.0 0.00 0.00 0.00 69 1016.8
20260831144045 84 179 4.0 4.0 0.00 0.00 0.00 70 1016.7
20260831143539 84 222 2.0 3.0 0.00 0.00 0.00 71 1016.9
20260831143035 84 196 9.0 10.0 0.00 0.00 0.00 71 1016.9
20260831142532 83 186 8.0 10.0 0.00 0.00 0.00 71 1016.7
20260831142027 83 167 5.0 6.0 0.00 0.00 0.00 72 1016.5
20260831141526 83 181 4.0 6.0 0.00 0.00 0.00 73 1016.8
20260831141021 82 224 1.0 2.0 0.00 0.00 0.00 74 1016.7
20260831140520 82 190 4.0 7.0 0.00 0.00 0.00 74 1016.6
20260831140015 82 208 4.0 6.0 0.00 0.00 0.00 74 1016.6
20260831135513 82 183 5.0 6.0 0.00 0.00 0.00 76 1016.5
20260831135008 81 188 4.0 7.0 0.00 0.00 0.00 76 1016.3
20260831134504 81 231 4.0 6.0 0.00 0.00 0.00 77 1016.3
20260831134003 81 217 2.0 3.0 0.00 0.00 0.00 78 1016.3
20260831133458 80 227 7.0 9.0 0.00 0.00 0.00 78 1016.3
20260831132953 80 215 1.0 3.0 0.00 0.00 0.00 79 1016.4
20260831132449 80 192 2.0 3.0 0.00 0.00 0.00 80 1016.2
20260831131948 79 192 4.0 4.0 0.00 0.00 0.00 80 1016.0
20260831131443 79 193 4.0 4.0 0.00 0.00 0.00 81 1016.2
20260831130938 79 191 4.0 7.0 0.00 0.00 0.00 81 1016.2
20260831130434 78 152 4.0 4.0 0.00 0.00 0.00 82 1016.0
20260831125928 78 194 4.0 6.0 0.00 0.00 0.00 82 1016.0
20260831125427 78 189 3.0 3.0 0.00 0.00 0.00 83 1016.0
20260831124924 77 172 2.0 3.0 0.00 0.00 0.00 83 1016.0
20260831124419 77 169 1.0 2.0 0.00 0.00 0.00 83 1016.0
20260831123915 77 183 2.0 2.0 0.00 0.00 0.00 83 1015.9
20260831123413 77 150 2.0 2.0 0.00 0.00 0.00 82 1015.8
20260831122908 77 161 5.0 6.0 0.00 0.00 0.00 82 1015.9
20260831122404 77 197 3.0 4.0 0.00 0.00 0.00 82 1015.5
20260831121859 77 185 5.0 7.0 0.00 0.00 0.00 82 1015.4
20260831121354 77 208 3.0 3.0 0.00 0.00 0.00 81 1015.5
20260831120850 77 182 3.0 3.0 0.00 0.00 0.00 81 1015.3
20260831120344 78 183 6.0 8.0 0.00 0.00 0.00 80 1015.4
20260831115839 78 193 3.0 4.0 0.00 0.00 0.00 80 1015.1
20260831115336 78 185 3.0 4.0 0.00 0.00 0.00 80 1015.3
20260831114834 78 207 2.0 3.0 0.00 0.00 0.00 80 1015.0
20260831114328 78 207 0.0 3.0 0.00 0.00 0.00 79 1015.2
20260831113824 78 204 0.0 1.0 0.00 0.00 0.00 79 1015.1
20260831113323 78 196 4.0 6.0 0.00 0.00 0.00 79 1014.8
20260831112818 78 195 4.0 4.0 0.00 0.00 0.00 79 1015.1
20260831112313 78 198 3.0 3.0 0.00 0.00 0.00 79 1014.9
20260831111808 78 167 2.0 4.0 0.00 0.00 0.00 79 1014.9
20260831111305 78 192 3.0 4.0 0.00 0.00 0.00 78 1015.1
20260831110801 78 180 0.0 0.0 0.00 0.00 0.00 78 1015.0
20260831110255 78 200 0.0 0.0 0.00 0.00 0.00 78 1014.9
20260831105754 78 186 0.0 0.0 0.00 0.00 0.00 77 1014.9
20260831105250 79 194 4.0 4.0 0.00 0.00 0.00 77 1014.8
20260831104750 79 194 4.0 6.0 0.00 0.00 0.00 77 1014.9
20260831104247 79 180 6.0 7.0 0.00 0.00 0.00 77 1014.9
20260831103746 79 192 3.0 3.0 0.00 0.00 0.00 76 1014.9
20260831103242 79 196 0.0 2.0 0.00 0.00 0.00 76 1014.7
20260831102741 79 189 0.0 0.0 0.00 0.00 0.00 76 1014.8
20260831102236 79 181 0.0 0.0 0.00 0.00 0.00 76 1014.8
20260831101732 79 188 0.0 0.0 0.00 0.00 0.00 77 1014.6
20260831101227 79 191 4.0 6.0 0.00 0.00 0.00 76 1014.8
20260831100723 79 197 1.0 3.0 0.00 0.00 0.00 76 1014.6
20260831100219 79 196 3.0 4.0 0.00 0.00 0.00 76 1014.8
20260831095718 79 195 3.0 3.0 0.00 0.00 0.00 75 1014.8
20260831095213 80 188 0.0 0.0 0.00 0.00 0.00 75 1014.9
20260831094708 80 193 3.0 3.0 0.00 0.00 0.00 75 1014.7
20260831094204 80 209 5.0 6.0 0.00 0.00 0.00 74 1014.4
20260831093659 80 186 3.0 4.0 0.00 0.00 0.00 74 1014.9
20260831093154 80 207 0.0 1.0 0.00 0.00 0.00 73 1014.6
20260831092651 80 190 0.0 0.0 0.00 0.00 0.00 73 1014.8
20260831092147 80 202 3.0 6.0 0.00 0.00 0.00 73 1014.4
20260831091646 81 196 4.0 6.0 0.00 0.00 0.00 73 1014.7
20260831091142 81 205 6.0 7.0 0.00 0.00 0.00 72 1014.5
20260831090637 81 181 3.0 3.0 0.00 0.00 0.00 72 1014.4
20260831090133 81 183 4.0 4.0 0.00 0.00 0.00 72 1014.5
20260831085628 81 205 3.0 3.0 0.00 0.00 0.00 71 1014.6
20260831085123 82 185 4.0 4.0 0.00 0.00 0.00 71 1014.2
20260831084619 82 196 3.0 3.0 0.00 0.00 0.00 71 1014.6
20260831084115 82 164 6.0 7.0 0.00 0.00 0.00 70 1014.2
20260831083611 82 179 4.0 4.0 0.00 0.00 0.00 70 1014.4
20260831083106 82 201 3.0 3.0 0.00 0.00 0.00 70 1013.9
20260831082604 82 215 4.0 6.0 0.00 0.00 0.00 69 1014.0
20260831082100 82 229 4.0 6.0 0.00 0.00 0.00 69 1014.4
20260831081556 82 202 5.0 8.0 0.00 0.00 0.00 68 1014.1
20260831081051 82 199 3.0 4.0 0.00 0.00 0.00 68 1014.2
20260831080546 83 182 4.0 4.0 0.00 0.00 0.00 67 1014.1
20260831080042 83 205 6.0 7.0 0.00 0.00 0.00 67 1014.1
20260831075536 83 184 6.0 8.0 0.00 0.00 0.00 66 1014.4
20260831075032 83 187 3.0 4.0 0.00 0.00 0.00 66 1014.0
20260831074531 83 194 3.0 7.0 0.00 0.00 0.00 65 1014.2
20260831074026 83 186 6.0 7.0 0.00 0.00 0.00 65 1014.2
20260831073521 83 178 4.0 4.0 0.00 0.00 0.00 65 1014.1
20260831073020 83 202 5.0 7.0 0.00 0.00 0.00 64 1014.2
20260831072516 83 197 4.0 4.0 0.00 0.00 0.00 64 1014.1
20260831072012 83 210 3.0 3.0 0.00 0.00 0.00 63 1014.2
20260831071510 83 184 3.0 4.0 0.00 0.00 0.00 63 1014.2
20260831071006 83 201 4.0 6.0 0.00 0.00 0.00 62 1014.1
20260831070504 83 190 4.0 4.0 0.00 0.00 0.00 62 1014.2
20260831065959 83 182 1.0 3.0 0.00 0.00 0.00 61 1014.1
20260831065457 83 179 3.0 4.0 0.00 0.00 0.00 60 1014.4
20260831064952 83 182 5.0 6.0 0.00 0.00 0.00 60 1014.6
20260831064447 83 173 7.0 9.0 0.00 0.00 0.00 59 1014.4
20260831063942 84 182 6.0 9.0 0.00 0.00 0.00 59 1014.4
20260831063437 84 211 3.0 3.0 0.00 0.00 0.00 58 1014.4
20260831062931 84 198 5.0 7.0 0.00 0.00 0.00 57 1014.4
20260831062429 84 194 4.0 6.0 0.00 0.00 0.00 57 1014.2
20260831061926 84 184 4.0 4.0 0.00 0.00 0.00 56 1014.2
20260831061425 84 180 3.0 3.0 0.00 0.00 0.00 56 1014.5
20260831060921 84 193 5.0 6.0 0.00 0.00 0.00 55 1014.1
20260831060415 84 193 4.0 4.0 0.00 0.00 0.00 55 1014.1